Kenner, LA

10:11 AM CDT on August 29, 2016 (GMT -0500)
New Orleans International

Weather History for KMSY - April, 2013

Change the Weather History Date:

Tuesday, April 23, 2013

  Actual Average Record
Temperature  
Mean Temperature 74 °F -  
Max Temperature 82 °F 80 °F 88 °F (1967)
Min Temperature 66 °F 61 °F 46 °F (1993)
Cooling Degree Days 9    
Growing Degree Days 24 (Base 50)    
Moisture  
Dew Point 65 °F    
Average Humidity 76    
Maximum Humidity 90    
Minimum Humidity 49    
Precipitation  
Precipitation 0.00 in - - ()
Sea Level Pressure  
Sea Level Pressure 30.03 in    
Wind  
Wind Speed 12 mph (SE)    
Max Wind Speed 20 mph    
Max Gust Speed 36 mph    
Visibility 10 miles    
Events      
Averages and records for this station are not official NWS values.
T = Trace of Precipitation, MM = Missing Value Source: NWS Daily Summary

Daily Weather History Graph

Daily Weather History Graph

Search for Another Location

Airport or City:

Trip Planner

Search our weather history database for the weather conditions in past years. The results will help you decide how hot, cold, wet, or windy it might be!

Date:

Astronomy

Apr. 23, 2013 Rise Set
Actual Time 6:25 AM CDT 7:33 PM CDT
Civil Twilight 6:00 AM CDT 7:58 PM CDT
Nautical Twilight 5:31 AM CDT 8:28 PM CDT
Astronomical Twilight 5:00 AM CDT 8:58 PM CDT
Moon 5:35 PM CDT (4/23) 4:43 AM CDT (4/23)
Length of Visible Light 13h 57m
Length of Day
13h 07m
Waxing Gibbous, 94% of the Moon is Illuminated
Apr 23
Waxing Gibbous
Apr 25
Full
May 2
Last Quarter
May 9
New
May 17
First Quarter

Hourly Weather History & Observations

Time (CDT) Temp. Heat Index Dew Point Humidity Pressure Visibility Wind Dir Wind Speed Gust Speed Precip Events Conditions
12:53 AM 69.1 °F - 63.0 °F 81% 30.04 in 10.0 mi SE 13.8 mph 35.7 mph N/A   Scattered Clouds
1:53 AM 68.0 °F - 64.0 °F 87% 30.04 in 10.0 mi SE 12.7 mph - N/A   Scattered Clouds
2:53 AM 66.9 °F - 64.0 °F 90% 30.02 in 10.0 mi SE 9.2 mph - N/A   Partly Cloudy
3:53 AM 66.9 °F - 63.0 °F 87% 30.02 in 10.0 mi ESE 6.9 mph - N/A   Scattered Clouds
4:45 AM 68.0 °F - 62.6 °F 83% 30.02 in 10.0 mi ESE 8.1 mph - N/A   Mostly Cloudy
4:53 AM 66.2 °F - 62.6 °F 88% 30.02 in 10.0 mi ESE 9.2 mph - N/A   Mostly Cloudy
5:33 AM 66.2 °F - 62.6 °F 88% 30.02 in 10.0 mi SE 6.9 mph - N/A   Scattered Clouds
5:53 AM 66.9 °F - 63.0 °F 87% 30.03 in 10.0 mi SE 8.1 mph - N/A   Scattered Clouds
6:53 AM 66.9 °F - 63.0 °F 87% 30.04 in 10.0 mi SE 6.9 mph - N/A   Scattered Clouds
7:53 AM 69.1 °F - 63.0 °F 81% 30.06 in 10.0 mi SE 9.2 mph - N/A   Scattered Clouds
8:53 AM 72.0 °F - 63.0 °F 73% 30.07 in 10.0 mi SSE 17.3 mph 21.9 mph N/A   Partly Cloudy
9:53 AM 73.9 °F - 64.0 °F 71% 30.09 in 10.0 mi SSE 12.7 mph - N/A   Mostly Cloudy
10:53 AM 77.0 °F - 64.9 °F 66% 30.08 in 10.0 mi SSE 15.0 mph 19.6 mph N/A   Mostly Cloudy
11:53 AM 78.1 °F - 64.0 °F 62% 30.08 in 10.0 mi SSE 12.7 mph - N/A   Mostly Cloudy
12:53 PM 81.0 °F 82.7 °F 64.9 °F 58% 30.06 in 10.0 mi SSE 15.0 mph - N/A   Mostly Cloudy
1:53 PM 81.0 °F 83.0 °F 66.0 °F 60% 30.04 in 10.0 mi South 16.1 mph - N/A   Scattered Clouds
2:53 PM 81.0 °F 83.0 °F 66.0 °F 60% 30.04 in 10.0 mi SSE 17.3 mph 21.9 mph N/A   Mostly Cloudy
3:53 PM 81.0 °F 83.0 °F 66.0 °F 60% 30.01 in 10.0 mi South 19.6 mph - N/A   Mostly Cloudy
4:53 PM 81.0 °F 83.0 °F 66.0 °F 60% 29.99 in 10.0 mi SSE 16.1 mph 21.9 mph N/A   Mostly Cloudy
5:53 PM 78.1 °F - 66.0 °F 66% 29.99 in 10.0 mi SSE 13.8 mph - N/A   Mostly Cloudy
6:53 PM 75.9 °F - 66.9 °F 74% 29.98 in 10.0 mi SSE 11.5 mph - N/A   Mostly Cloudy
7:53 PM 73.0 °F - 66.9 °F 81% 30.00 in 10.0 mi SE 10.4 mph - N/A   Mostly Cloudy
8:02 PM 73.4 °F - 66.2 °F 78% 29.99 in 10.0 mi SE 11.5 mph - N/A   Mostly Cloudy
8:27 PM 73.4 °F - 66.2 °F 78% 30.01 in 10.0 mi SE 11.5 mph 18.4 mph N/A   Mostly Cloudy
8:53 PM 72.0 °F - 66.9 °F 84% 30.02 in 10.0 mi SE 10.4 mph - N/A   Mostly Cloudy
9:01 PM 71.6 °F - 66.2 °F 83% 30.01 in 10.0 mi SE 12.7 mph - N/A   Mostly Cloudy
9:17 PM 71.6 °F - 66.2 °F 83% 30.02 in 10.0 mi SE 12.7 mph - N/A   Mostly Cloudy
9:27 PM 71.6 °F - 66.2 °F 83% 30.02 in 10.0 mi SE 8.1 mph - N/A   Mostly Cloudy
9:53 PM 73.0 °F - 66.9 °F 81% 30.04 in 10.0 mi SE 9.2 mph - N/A   Mostly Cloudy
10:53 PM 72.0 °F - 66.0 °F 81% 30.04 in 10.0 mi SE 8.1 mph - N/A   Mostly Cloudy
11:53 PM 71.1 °F - 66.0 °F 84% 30.03 in 10.0 mi SE 10.4 mph - N/A   Mostly Cloudy